Date String (YYYY-MM-DD hh:mm:ss) UTC,Instrument flags,Ambient pressure (hPa),Sample flow (lpm),Bypass flow (lpm),Sample temperature (°C),Ambient temperature (°C),ASC tube jacket temperature (°C),LED temperature (°C),Box temperature (°C),Sample RH (%),Span deviation,Mass concentration (μg/m³),Mass concentration (μg/m³),Mass concentration (μg/m³)
DateTimeUTC,F1_M11,P_M11,Q1_M11,Q2_M11,T1_M11,T2_M11,T3_M11,T4_M11,T5_M11,U1_M11,ZSPAN_M11,X0_M11,X2_M11,X1_M11
2022-02-26 13:00:00,,0829.6,4.99,0.00,21.6,20.9,00.0,30.8,23.1,07.1,0001.6,0018.22,0013.24,0012.34
2022-02-26 13:01:00,,0829.6,5.00,0.00,21.6,20.7,00.0,30.7,23.1,07.1,0001.5,0018.29,0013.29,0012.39
2022-02-26 13:02:00,,0829.6,5.00,0.00,21.6,21.1,00.0,30.7,23.1,07.1,0001.4,0018.19,0013.37,0012.47
2022-02-26 13:03:00,,0829.6,5.02,0.00,21.7,22.0,00.0,30.8,23.4,07.1,0001.2,0018.23,0013.37,0012.49
2022-02-26 13:04:00,,0829.6,4.99,0.00,21.9,22.7,00.0,30.8,23.7,07.0,0001.0,0018.52,0013.44,0012.53
2022-02-26 13:05:00,,0829.6,5.00,0.00,22.0,22.9,00.0,30.8,23.8,07.0,0001.0,0018.48,0013.47,0012.58
2022-02-26 13:06:00,,0829.5,5.00,0.00,22.0,22.4,00.0,30.9,23.7,07.0,0001.1,0018.61,0013.48,0012.62
2022-02-26 13:07:00,,0829.6,4.99,0.00,21.9,22.0,00.0,30.8,23.6,07.0,0001.0,0018.72,0013.52,0012.64
2022-02-26 13:08:00,,0829.6,5.00,0.00,21.8,21.6,00.0,30.8,23.4,07.1,0001.0,0018.69,0013.54,0012.65
2022-02-26 13:09:00,,0829.6,5.00,0.00,21.8,21.3,00.0,30.8,23.3,07.1,0000.6,0018.51,0013.50,0012.63
2022-02-26 13:10:00,,0829.5,4.99,0.00,21.7,21.0,00.0,30.8,23.2,07.1,0000.3,0018.49,0013.45,0012.58
2022-02-26 13:11:00,,0829.5,4.99,0.00,21.6,20.8,00.0,30.8,23.0,07.0,0000.2,0018.34,0013.32,0012.47
2022-02-26 13:12:00,,0829.5,5.01,0.00,21.6,21.1,00.0,30.7,23.1,07.1,0000.3,0018.42,0013.25,0012.38
2022-02-26 13:13:00,,0829.5,5.00,0.00,21.7,21.9,00.0,30.8,23.4,07.0,0000.2,0018.24,0013.09,0012.22
2022-02-26 13:14:00,,0829.6,5.01,0.00,21.8,22.7,00.0,30.8,23.7,06.9,0000.4,0017.84,0012.96,0012.07
2022-02-26 13:15:00,,0829.5,5.01,0.00,22.0,22.9,00.0,30.9,23.9,06.8,0000.0,0017.57,0012.85,0011.99
2022-02-26 13:16:00,,0829.5,4.99,0.00,22.0,22.5,00.0,30.9,23.8,06.9,0000.2,0017.47,0012.77,0011.90
2022-02-26 13:17:00,,0829.5,5.00,0.00,22.0,22.1,00.0,30.9,23.7,06.9,0000.5,0017.23,0012.68,0011.81
2022-02-26 13:18:00,,0829.5,5.01,0.00,21.9,21.7,00.0,30.9,23.5,06.9,0000.6,0017.08,0012.60,0011.72
2022-02-26 13:19:00,,0829.5,5.00,0.00,21.8,21.3,00.0,30.8,23.3,07.0,0000.5,0017.11,0012.53,0011.65
2022-02-26 13:20:00,,0829.5,5.01,0.00,21.7,21.0,00.0,30.8,23.2,06.9,0000.4,0016.97,0012.44,0011.56
2022-02-26 13:21:00,,0829.5,5.01,0.00,21.6,20.8,00.0,30.8,23.1,06.9,0000.4,0016.87,0012.32,0011.44
2022-02-26 13:22:00,,0829.5,5.00,0.00,21.6,21.0,00.0,30.8,23.1,06.9,0000.1,0016.83,0012.27,0011.38
2022-02-26 13:23:00,,0829.5,4.99,0.00,21.7,21.8,00.0,30.8,23.3,06.9,0000.2,0016.68,0012.26,0011.37
2022-02-26 13:24:00,,0829.5,5.01,0.00,21.8,22.5,00.0,30.8,23.6,06.9,0000.1,0016.74,0012.32,0011.44
2022-02-26 13:25:00,,0829.5,4.99,0.00,22.0,22.9,00.0,30.9,23.8,06.8,-000.4,0016.95,0012.36,0011.49
2022-02-26 13:26:00,,0829.5,5.00,0.00,22.0,22.5,00.0,30.9,23.8,06.8,-000.3,0016.88,0012.35,0011.45
2022-02-26 13:27:00,,0829.5,5.00,0.00,21.9,22.2,00.0,30.9,23.6,06.8,-000.5,0016.80,0012.32,0011.44
2022-02-26 13:28:00,,0829.6,5.00,0.00,21.9,21.7,00.0,30.9,23.5,06.8,-000.7,0016.67,0012.24,0011.42
2022-02-26 13:29:00,,0829.5,5.01,0.00,21.8,21.4,00.0,30.8,23.3,06.8,-000.8,0016.50,0012.12,0011.35
2022-02-26 13:30:00,,0829.5,5.00,0.00,21.7,21.1,00.0,30.8,23.2,06.8,-000.6,0016.39,0012.06,0011.32
2022-02-26 13:31:00,,0829.5,4.99,0.00,21.6,21.0,00.0,30.8,23.1,06.9,-000.4,0016.86,0012.09,0011.35
2022-02-26 13:32:00,,0829.5,5.00,0.00,21.6,20.9,00.0,30.8,23.1,06.9,-000.6,0016.88,0012.17,0011.44
2022-02-26 13:33:00,,0829.5,4.99,0.00,21.6,21.4,00.0,30.8,23.2,06.9,-000.5,0016.98,0012.26,0011.53
2022-02-26 13:34:00,,0829.6,5.00,0.00,21.8,22.2,00.0,30.8,23.5,06.9,-000.5,0016.90,0012.26,0011.57
2022-02-26 13:35:00,,0829.6,5.01,0.00,21.9,22.9,00.0,30.8,23.8,06.8,-000.5,0016.90,0012.24,0011.55
2022-02-26 13:36:00,,0829.5,4.99,0.00,22.0,23.0,00.0,30.9,23.9,06.8,-000.2,0016.76,0012.25,0011.56
2022-02-26 13:37:00,,0829.6,5.00,0.00,22.0,22.6,00.0,30.9,23.9,06.7,0000.2,0016.66,0012.25,0011.59
2022-02-26 13:38:00,,0829.6,5.00,0.00,22.0,22.2,00.0,30.9,23.7,06.7,0000.3,0016.62,0012.22,0011.56
2022-02-26 13:39:00,,0829.6,5.00,0.00,22.0,21.9,00.0,30.9,23.6,06.8,0000.2,0017.34,0012.29,0011.55
2022-02-26 13:40:00,,0829.6,5.01,0.00,21.9,21.6,00.0,30.9,23.5,06.8,0000.1,0017.70,0012.42,0011.65
2022-02-26 13:41:00,,0829.6,5.01,0.00,21.8,21.4,00.0,30.9,23.4,06.8,0000.2,0017.69,0012.50,0011.76
2022-02-26 13:42:00,,0829.5,5.00,0.00,21.8,21.3,00.0,30.9,23.3,06.9,0000.2,0017.33,0012.54,0011.79
2022-02-26 13:43:00,,0829.5,5.00,0.00,21.7,21.1,00.0,30.8,23.3,06.9,0000.2,0017.48,0012.61,0011.84
2022-02-26 13:44:00,,0829.6,5.00,0.00,21.7,21.1,00.0,30.8,23.2,06.9,0000.2,0017.51,0012.64,0011.86
2022-02-26 13:45:00,,0829.6,4.99,0.00,21.8,21.7,00.0,30.8,23.4,06.9,0000.1,0017.61,0012.65,0011.83
2022-02-26 13:46:00,,0829.6,5.00,0.00,21.9,22.5,00.0,30.9,23.7,06.9,0000.1,0017.68,0012.69,0011.86
2022-02-26 13:47:00,,0829.6,5.00,0.00,22.0,22.8,00.0,30.9,23.9,06.9,0000.1,0017.74,0012.75,0011.93
2022-02-26 13:48:00,,0829.6,4.99,0.00,22.0,22.5,00.0,30.9,23.8,06.9,0000.0,0017.78,0012.78,0011.98
2022-02-26 13:49:00,,0829.6,5.02,0.00,22.0,22.1,00.0,30.9,23.8,06.9,0000.2,0017.98,0012.84,0012.03
2022-02-26 13:50:00,,0829.6,4.98,0.00,22.0,21.9,00.0,30.9,23.7,06.9,0000.5,0017.48,0012.86,0012.10
2022-02-26 13:51:00,,0829.6,5.01,0.00,21.9,21.7,00.0,30.9,23.6,06.9,0000.8,0017.45,0012.91,0012.13
2022-02-26 13:52:00,,0829.6,5.00,0.00,21.9,21.5,00.0,30.9,23.5,06.9,0000.9,0017.79,0012.90,0012.09
2022-02-26 13:53:00,,0829.6,4.99,0.00,21.9,21.3,00.0,30.9,23.5,06.9,0000.7,0017.93,0012.80,0012.00
2022-02-26 13:54:00,,0829.6,4.99,0.00,21.8,21.2,00.0,30.9,23.4,06.9,0000.7,0018.01,0012.64,0011.87
2022-02-26 13:55:00,,0829.6,5.00,0.00,21.8,21.4,00.0,30.9,23.4,06.9,0000.7,0018.22,0012.57,0011.79
2022-02-26 13:56:00,,0829.6,5.02,0.00,21.9,22.2,00.0,30.9,23.7,06.9,0000.7,0018.32,0012.55,0011.76
2022-02-26 13:57:00,,0829.6,4.98,0.00,22.1,23.1,00.0,31.0,24.0,06.9,0000.9,0018.21,0012.53,0011.72
2022-02-26 13:58:00,,0829.7,5.01,0.00,22.2,23.2,00.0,31.0,24.1,06.8,0000.7,0018.66,0012.47,0011.65
2022-02-26 13:59:00,,0829.7,5.00,0.00,22.2,22.8,00.0,31.0,24.1,06.8,0000.6,0018.64,0012.44,0011.61
